Theta_e
325 338 348 349 349 352 351 353 353 353 350 349 348 347 345 344 343 343 343 342 342 342 343 344 344 346 350 354 355 354 354 352 352 355 354 353 353 352 352 351 351 350 355
326 340 345 348 350 351 354 354 353 353 351 349 348 347 346 345 345 344 344 344 343 342 342 343 343 345 350 355 355 353 353 351 350 351 349 348 350 353 351 351 350 351 354
323 339 342 346 349 351 352 350 350 351 351 349 349 348 348 347 346 344 345 346 343 343 342 343 343 344 350 353 354 353 353 351 349 349 346 346 347 352 351 351 351 353 353
321 336 341 343 349 350 351 350 349 350 348 349 349 349 348 347 347 344 343 346 343 343 343 342 343 344 347 352 353 352 351 350 348 346 344 346 346 351 351 351 351 352 352
320 334 340 342 344 345 347 349 350 350 351 349 348 347 348 348 347 347 346 346 344 343 343 343 342 345 347 351 352 351 350 349 345 343 341 344 343 348 350 350 350 349 347
312 321 336 340 340 340 339 344 347 348 348 347 347 347 347 347 347 347 347 346 345 344 345 345 345 345 345 349 351 350 349 349 344 339 339 340 343 350 351 350 350 347 346
307 309 311 324 334 338 338 339 342 345 346 347 347 346 347 346 346 347 347 346 346 345 345 346 347 346 345 347 349 349 348 345 341 338 338 337 341 351 351 349 350 349 348
306 308 311 316 320 324 335 338 339 339 342 344 345 344 345 344 345 345 345 346 346 345 345 345 347 346 347 346 347 346 342 339 337 337 336 335 341 352 351 349 350 349 349
303 303 306 309 314 318 320 327 335 337 339 341 342 342 341 340 342 342 342 343 345 345 345 345 346 346 346 346 346 343 338 336 336 336 336 335 343 350 351 349 348 348 348
299 300 300 302 307 311 313 320 324 330 332 334 336 336 335 335 335 336 335 337 341 344 344 344 344 345 345 345 343 339 335 333 334 334 333 336 344 351 350 349 347 347 346
297 297 298 299 301 304 306 313 318 323 327 328 330 330 329 332 335 333 332 334 338 338 340 342 343 343 341 339 338 335 332 335 332 332 333 336 345 349 349 348 347 346 346
294 295 296 297 299 301 303 306 309 313 319 321 325 327 329 330 331 332 328 328 332 333 335 339 339 338 333 335 336 333 334 330 331 331 333 336 345 349 348 347 346 346 345
291 293 295 296 298 299 301 303 304 306 312 317 319 321 324 327 329 330 329 327 327 323 329 331 332 332 331 333 331 332 330 328 329 331 332 335 344 347 347 346 345 345 345
291 293 294 294 295 297 299 300 302 304 308 310 313 319 320 322 324 327 328 327 326 327 325 326 326 327 329 331 328 326 326 327 329 331 331 331 340 346 346 346 345 344 344
289 292 293 293 293 295 294 295 297 300 305 306 308 312 316 318 320 324 326 326 326 324 325 325 323 323 323 324 325 325 326 327 328 331 332 324 333 342 346 346 345 345 343
289 290 292 293 293 293 292 292 293 295 300 304 305 306 312 312 314 319 322 324 326 327 327 325 323 322 322 323 321 322 323 324 326 329 330 329 328 336 342 345 345 345 343
288 289 289 291 292 292 292 293 293 294 296 298 302 305 303 305 306 308 312 320 323 327 326 324 322 320 319 320 321 321 320 321 322 326 328 327 328 326 335 342 343 343 341
287 287 289 291 291 291 291 292 293 293 293 294 300 301 301 301 302 301 309 309 318 323 325 323 321 318 318 318 316 318 318 319 320 321 323 324 329 331 330 336 338 339 340
286 286 288 289 290 291 291 292 292 292 291 293 295 297 299 300 301 304 304 305 306 310 323 324 321 319 316 315 316 317 318 318 318 319 320 321 323 328 332 329 329 330 335
285 285 286 289 290 290 291 291 291 291 291 292 292 294 298 299 300 298 301 302 303 304 305 322 321 320 318 316 316 316 317 317 318 318 319 318 320 322 328 329 327 326 327
284 284 286 288 288 289 288 287 288 289 290 290 291 293 294 297 298 298 298 298 301 302 304 303 320 318 318 318 315 315 316 317 317 317 319 318 317 318 325 326 327 327 328
283 284 287 287 288 288 288 288 289 287 287 289 290 292 294 295 296 298 297 297 299 301 301 303 303 318 318 318 314 312 306 308 314 315 316 316 317 316 320 322 324 325 326
282 283 286 287 287 287 287 286 285 285 284 284 287 288 290 291 294 297 297 297 297 298 300 301 301 303 314 316 317 312 304 304 307 303 313 314 314 315 316 319 320 320 321
283 284 285 286 286 286 284 282 280 278 277 279 280 282 283 289 292 296 297 296 295 295 294 301 302 301 308 313 316 315 309 308 305 299 301 312 313 314 316 318 318 318 317
284 283 283 284 284 284 283 281 279 277 278 278 278 278 280 284 289 291 294 294 294 294 295 298 301 300 299 315 314 313 306 308 309 307 301 299 310 313 316 317 317 317 317
282 282 283 283 282 282 281 280 278 276 276 276 276 276 279 282 284 287 292 295 295 295 295 296 298 301 300 311 316 314 309 306 305 307 306 303 306 298 311 317 316 316 315
Wind_Speed
3 2 6 6 5 4 5 5 7 6 5 5 5 5 4 3 3 5 6 6 7 7 8 8 8 7 8 10 9 8 7 8 8 7 7 8 7 9 11 8 9 7 12
4 3 7 3 3 4 6 7 8 7 8 7 7 7 6 5 5 6 8 9 9 9 10 10 10 10 9 9 10 10 9 9 9 9 9 8 7 7 10 8 9 9 12
9 4 4 5 2 5 4 6 7 8 10 10 10 10 9 8 7 8 9 8 10 11 12 12 12 12 10 9 10 12 11 10 10 10 9 5 5 6 8 10 11 11 14
9 7 7 8 8 7 5 6 7 8 9 11 12 11 10 10 10 9 10 9 10 12 13 14 14 13 11 10 10 12 13 12 10 11 6 7 7 8 9 12 13 13 15
12 8 8 10 9 10 13 12 9 8 9 11 13 13 12 12 12 11 10 10 11 13 13 14 14 13 12 12 12 13 14 13 12 11 6 5 6 10 12 13 11 13 15
17 16 8 9 9 8 10 13 14 10 11 11 12 13 14 14 12 10 11 11 12 14 14 15 15 13 12 13 14 15 14 13 13 8 6 6 7 15 14 13 12 12 12
16 15 17 24 19 10 8 11 15 18 15 14 13 14 14 14 14 13 12 13 14 15 15 16 15 15 12 13 15 17 16 14 10 7 7 6 8 17 17 16 16 15 15
15 15 15 20 21 21 17 12 12 15 18 18 17 16 15 16 16 15 15 14 15 15 15 15 13 13 14 13 17 17 14 13 9 8 6 5 10 18 19 17 16 17 17
12 16 14 14 14 20 19 19 15 15 16 17 18 16 17 17 16 16 15 16 16 16 15 15 13 12 13 15 17 17 14 14 8 7 6 4 13 20 21 20 18 18 19
14 13 14 15 15 15 12 19 20 19 15 18 19 15 13 14 14 13 13 12 18 19 17 16 14 14 15 15 17 15 15 15 8 6 5 5 15 20 21 21 20 20 22
12 13 12 13 14 14 14 14 16 19 17 16 15 15 12 7 9 10 12 14 17 20 19 16 16 16 15 14 15 16 15 7 7 4 3 11 16 21 22 22 21 22 23
12 11 12 10 13 12 12 13 12 12 11 10 11 13 11 11 10 10 11 14 18 18 17 16 18 16 10 6 8 14 9 7 7 5 4 13 18 22 23 23 23 24 25
6 5 10 11 13 11 11 8 7 8 7 8 12 12 12 10 8 6 6 6 7 11 7 8 7 5 7 8 7 8 8 9 5 4 5 12 18 22 26 26 26 26 28
7 7 8 8 9 8 7 6 8 8 9 8 11 14 10 8 9 8 7 8 8 6 8 6 4 5 8 9 9 9 8 7 5 4 6 13 18 22 27 29 30 30 29
8 8 8 7 6 8 10 8 8 9 7 8 11 13 12 11 11 11 9 8 8 6 6 6 6 7 7 8 8 10 9 9 8 5 5 13 16 24 28 31 33 33 32
7 7 7 7 6 7 8 10 10 9 8 7 6 11 13 12 12 13 12 10 9 7 7 8 9 9 9 10 9 9 6 5 7 9 7 8 16 21 28 31 32 32 33
4 5 9 14 13 14 16 14 11 10 12 12 9 7 12 12 13 15 13 14 10 8 11 9 7 7 9 8 13 11 8 5 4 9 11 6 8 15 27 34 33 33 34
8 7 13 15 16 16 16 14 12 11 10 12 12 7 8 12 13 14 10 11 15 11 10 10 10 10 10 11 10 8 8 8 6 1 5 4 5 8 16 38 34 33 34
12 8 13 15 16 17 17 14 14 13 8 10 11 13 13 9 12 9 8 10 14 16 13 13 13 15 12 11 11 10 8 8 9 5 2 5 5 6 8 14 23 26 31
9 8 9 11 15 18 13 14 13 12 10 10 13 13 14 10 12 7 9 10 11 12 15 15 17 16 15 14 12 10 10 9 9 11 8 4 3 6 9 10 11 12 22
8 7 8 12 15 13 12 14 14 13 13 15 14 17 16 13 11 9 5 9 10 12 17 18 13 20 16 14 11 8 9 11 10 8 9 6 5 3 9 11 9 10 12
6 7 11 13 15 15 12 12 12 15 15 15 16 17 15 15 16 10 6 7 9 11 16 17 19 15 16 17 12 10 7 4 8 10 9 10 11 4 8 12 13 14 13
8 7 12 14 14 14 16 13 13 13 13 14 13 14 13 19 16 13 8 6 5 8 13 13 14 23 10 13 18 9 7 8 10 1 13 9 10 6 2 11 14 12 11
7 6 10 10 12 14 16 15 18 14 17 15 16 15 17 21 19 15 12 5 5 4 15 13 8 17 23 16 15 14 6 10 13 6 1 9 10 11 8 8 9 11 10
6 7 7 6 11 13 13 14 13 16 14 14 14 19 20 15 20 18 16 8 5 6 8 17 15 14 15 15 16 17 6 10 12 15 11 6 8 11 10 7 11 11 13
5 7 6 9 13 14 13 15 16 17 19 16 17 15 13 14 12 17 17 12 7 6 7 13 14 17 22 21 17 18 14 15 13 15 14 12 14 3 7 10 11 11 10
Wind_Direction
353 180 150 166 186 194 199 205 186 184 204 205 196 202 206 225 271 293 296 287 285 280 274 274 273 259 257 220 205 210 182 162 150 147 134 119 119 130 134 138 129 127 133
18 134 126 144 187 237 220 210 192 194 204 221 224 223 233 238 243 264 276 286 285 280 275 268 267 263 262 246 200 195 192 184 172 156 152 139 140 149 142 135 124 131 135
360 89 88 117 64 322 259 259 221 210 214 221 227 227 226 241 252 263 259 260 274 280 275 270 265 263 264 243 190 190 190 188 182 168 160 148 148 171 154 149 138 139 138
13 35 59 47 27 353 311 269 254 246 239 242 238 239 228 239 246 255 263 249 252 266 273 270 266 262 255 236 197 198 190 185 185 177 167 154 156 177 148 145 145 147 141
18 44 40 51 32 3 340 328 291 254 238 243 251 252 245 244 260 244 255 254 252 252 261 265 264 263 257 245 202 200 196 188 176 182 180 168 164 166 161 153 153 156 149
17 11 23 30 22 358 334 314 312 291 271 261 257 253 256 257 255 251 244 244 251 254 252 257 254 258 261 259 202 199 198 185 177 191 183 185 173 170 162 155 152 149 151
28 20 20 14 352 344 333 325 323 318 302 276 265 264 261 257 256 247 240 242 246 255 256 256 259 256 250 261 212 203 201 186 179 199 190 201 192 173 162 165 158 157 157
29 20 15 13 11 6 341 317 312 304 304 304 286 273 265 260 258 256 252 246 245 250 255 251 250 249 252 248 222 203 198 186 187 200 200 210 193 167 166 171 163 164 156
24 25 16 11 3 8 358 349 322 309 297 288 293 289 279 266 258 257 249 253 251 247 247 248 247 251 248 243 220 199 196 189 192 199 200 201 186 171 169 169 170 163 152
24 18 15 12 7 3 3 359 349 344 341 328 304 283 275 266 262 253 254 254 254 249 242 242 244 246 242 234 212 198 188 194 197 202 203 194 182 175 175 171 168 164 154
23 19 9 13 9 4 4 357 351 347 339 339 333 312 285 265 258 252 248 243 249 251 245 239 241 244 236 220 199 191 186 195 193 196 210 191 178 178 174 175 167 163 155
15 15 12 5 8 2 4 357 352 346 337 335 330 322 317 297 269 244 239 241 243 241 241 242 240 240 220 200 203 185 194 191 192 182 201 190 181 182 175 174 169 163 156
328 2 12 5 2 360 359 353 349 340 336 333 331 328 318 312 298 269 258 248 239 235 232 231 242 225 190 188 186 181 198 185 187 188 202 193 191 183 177 172 165 160 156
354 349 359 2 3 351 350 345 339 339 332 336 330 325 325 315 306 292 271 257 243 217 214 219 202 190 184 181 176 178 187 177 207 193 203 190 188 187 180 174 166 161 156
357 350 344 348 354 348 350 340 338 332 326 332 330 327 325 318 309 299 286 265 248 233 198 189 178 164 159 161 167 182 186 189 190 200 201 205 200 185 184 174 167 160 157
349 341 329 327 338 339 350 340 334 329 315 314 316 319 323 328 320 313 294 274 260 229 216 191 185 173 171 171 156 159 165 182 201 204 200 202 195 198 178 180 172 166 158
328 339 358 353 354 349 344 337 330 327 327 321 307 297 313 314 315 315 314 295 270 236 221 204 188 188 163 167 173 160 150 160 202 208 205 182 201 210 186 182 175 169 165
349 351 4 351 346 344 341 331 320 317 317 316 307 299 298 307 310 303 305 315 306 263 220 203 186 190 181 173 171 170 167 159 219 217 173 151 190 199 208 188 177 171 168
354 354 2 349 345 339 336 326 318 300 296 303 303 300 282 283 298 297 312 313 313 314 241 221 199 194 182 179 178 173 182 177 180 141 230 125 182 187 196 183 181 169 168
347 348 349 348 345 339 335 324 316 306 298 303 303 291 280 290 284 301 300 306 312 301 306 235 219 199 194 180 177 181 185 188 179 179 171 121 132 212 188 173 171 160 179
348 331 333 345 344 338 335 327 319 316 318 309 299 289 280 278 278 269 271 294 304 296 284 304 230 204 197 184 178 186 192 188 186 177 169 160 161 227 176 153 155 155 165
331 325 342 344 345 341 333 326 325 314 311 311 313 308 299 285 279 256 254 277 299 298 297 282 307 241 186 176 179 167 172 177 187 175 176 188 186 151 207 150 161 160 152
329 323 341 344 342 339 337 323 320 313 308 312 313 316 317 307 293 269 234 245 280 310 283 274 279 300 222 175 183 174 163 188 148 111 185 179 174 173 258 142 146 145 147
297 325 340 338 338 333 332 326 323 317 312 312 306 306 310 315 301 285 263 219 273 267 297 250 272 266 289 183 182 199 174 155 168 145 74 185 171 174 173 161 137 134 148
298 323 339 325 322 325 329 327 321 311 303 305 301 308 302 297 310 298 278 231 220 279 294 286 262 278 287 223 186 183 159 168 178 165 161 161 173 175 175 177 154 163 159
270 357 325 317 320 323 327 325 311 306 304 302 303 302 306 298 300 301 306 249 215 236 277 296 304 271 254 263 191 179 175 171 171 173 161 163 161 140 170 172 168 164 167